Location: *
(51.1248°S, 108.4023°W)
Time: 20:41:34
(UTC+00:00)

USA 281 - Pass Details

Date: 29 October 2021
Orbit: 1078 x 1081 km, 106.0° (Epoch: 25 November)

Event Time Altitude Azimuth Distance (km) Brightness Sun altitude
Exits shadow 02:38:51 - 38° (NE) 3,661 5.4 -4.6°
Reaches altitude 10° 02:40:47 10° 40° (NE) 2,930 4.9 -4.9°
Maximum altitude 02:47:20 72° 122° (ESE) 1,148 3.3 -5.7°
Drops below altitude 10° 02:53:58 10° 204° (SSW) 2,959 6.5 -6.6°
Sets 02:56:30 0° 206° (SSW) 3,921 7.2 -7.0°
